datetime,flow
1917-02-01,6750.0
1917-02-02,6250.0
1917-02-03,6250.0
1917-02-04,6000.0
1917-02-05,6500.0
1917-02-06,6500.0
1917-02-07,6750.0
1917-02-08,6500.0
1917-02-09,6500.0
1917-02-10,6500.0
1917-02-11,7300.0
1917-02-12,7600.0
1917-02-13,7300.0
1917-02-14,7600.0
1917-02-15,7600.0
1917-02-16,7900.0
1917-02-17,8500.0
1917-02-18,8500.0
1917-02-19,8200.0
1917-02-20,7600.0
1917-02-21,7600.0
1917-02-22,7300.0
1917-02-23,7300.0
1917-02-24,7600.0
1917-02-25,8200.0
1917-02-26,7900.0
1917-02-27,8200.0
1917-02-28,8500.0
1917-03-01,9100.0
1917-03-02,9800.0
1917-03-03,11200.0
1917-03-04,13900.0
1917-03-05,14700.0
1917-03-06,14300.0
1917-03-07,13500.0
1917-03-08,12700.0
1917-03-09,11600.0
1917-03-10,10500.0
1917-03-11,9800.0
1917-03-12,9800.0
1917-03-13,9800.0
1917-03-14,9800.0
1917-03-15,9450.0
1917-03-16,9100.0
1917-03-17,9100.0
1917-03-18,9100.0
1917-03-19,9450.0
1917-03-20,9800.0
1917-03-21,9800.0
1917-03-22,9800.0
1917-03-23,10200.0
1917-03-24,10200.0
1917-03-25,10200.0
1917-03-26,10500.0
1917-03-27,10500.0
1917-03-28,10500.0
1917-03-29,11900.0
1917-03-30,13500.0
1917-03-31,12700.0
1917-04-01,12300.0
1917-04-02,14300.0
1917-04-03,15200.0
1917-04-04,16000.0
1917-04-05,18000.0
1917-04-06,22200.0
1917-04-07,28800.0
1917-04-08,26000.0
1917-04-09,18000.0
1917-04-10,17000.0
1917-04-11,15200.0
1917-04-12,14300.0
1917-04-13,15600.0
1917-04-14,16500.0
1917-04-15,18500.0
1917-04-16,25300.0
1917-04-17,36000.0
1917-04-18,47200.0
1917-04-19,54800.0
1917-04-20,55600.0
1917-04-21,56500.0
1917-04-22,45500.0
1917-04-23,41500.0
1917-04-24,41500.0
1917-04-25,36700.0
1917-04-26,29500.0
1917-04-27,36700.0
1917-04-28,36000.0
1917-04-29,53100.0
1917-04-30,57300.0
1917-05-01,65000.0
1917-05-02,71000.0
1917-05-03,73800.0
1917-05-04,71000.0
1917-05-05,68200.0
1917-05-06,52300.0
1917-05-07,48800.0
1917-05-08,45500.0
1917-05-09,43900.0
1917-05-10,42300.0
1917-05-11,41500.0
1917-05-12,40700.0
1917-05-13,30900.0
1917-05-14,33700.0
1917-05-15,33000.0
1917-05-16,33000.0
1917-05-17,36700.0
1917-05-18,41500.0
1917-05-19,45500.0
1917-05-20,59000.0
1917-05-21,76600.0
1917-05-22,89200.0
1917-05-23,100000.0
1917-05-24,108000.0
1917-05-25,113000.0
1917-05-26,114000.0
1917-05-27,108000.0
1917-05-28,98300.0
1917-05-29,79400.0
1917-05-30,78000.0
1917-05-31,66800.0
1917-06-01,59600.0
1917-06-02,63200.0
1917-06-03,67500.0
1917-06-04,68200.0
1917-06-05,65000.0
1917-06-06,64400.0
1917-06-07,64400.0
1917-06-08,62600.0
1917-06-09,64400.0
1917-06-10,69600.0
1917-06-11,69600.0
1917-06-12,66800.0
1917-06-13,73800.0
1917-06-14,75900.0
1917-06-15,85700.0
1917-06-16,99700.0
1917-06-17,110000.0
1917-06-18,119000.0
1917-06-19,123000.0
1917-06-20,123000.0
1917-06-21,126000.0
1917-06-22,134000.0
1917-06-23,138000.0
1917-06-24,140000.0
1917-06-25,138000.0
1917-06-26,137000.0
1917-06-27,140000.0
1917-06-28,135000.0
1917-06-29,138000.0
1917-06-30,140000.0
1917-07-01,135000.0
1917-07-02,134000.0
1917-07-03,139000.0
1917-07-04,138000.0
1917-07-05,131000.0
1917-07-06,123000.0
1917-07-07,114000.0
1917-07-08,106000.0
1917-07-09,95500.0
1917-07-10,82200.0
1917-07-11,71000.0
1917-07-12,56500.0
1917-07-13,59600.0
1917-07-14,54800.0
1917-07-15,54800.0
1917-07-16,56500.0
1917-07-17,55600.0
1917-07-18,48800.0
1917-07-19,44700.0
1917-07-20,38300.0
1917-07-21,36700.0
1917-07-22,33000.0
1917-07-23,30200.0
1917-07-24,29500.0
1917-07-25,30200.0
1917-07-26,30200.0
1917-07-27,28100.0
1917-07-28,30900.0
1917-07-29,30900.0
1917-07-30,33000.0
1917-07-31,36000.0
1917-08-01,34400.0
1917-08-02,30900.0
1917-08-03,28100.0
1917-08-04,24600.0
1917-08-05,24600.0
1917-08-06,24600.0
1917-08-07,24600.0
1917-08-08,24600.0
1917-08-09,24600.0
1917-08-10,24000.0
1917-08-11,22200.0
1917-08-12,21600.0
1917-08-13,19000.0
1917-08-14,17000.0
1917-08-15,17000.0
1917-08-16,16000.0
1917-08-17,17000.0
1917-08-18,18000.0
1917-08-19,16000.0
1917-08-20,15600.0
1917-08-21,15600.0
1917-08-22,15600.0
1917-08-23,15200.0
1917-08-24,14700.0
1917-08-25,14300.0
1917-08-26,13900.0
1917-08-27,13500.0
1917-08-28,13100.0
1917-08-29,13500.0
1917-08-30,13500.0
1917-08-31,12700.0
1917-09-01,12000.0
1917-09-02,11200.0
1917-09-03,10800.0
1917-09-04,10500.0
1917-09-05,10200.0
1917-09-06,9800.0
1917-09-07,9800.0
1917-09-08,9680.0
1917-09-09,9570.0
1917-09-10,9450.0
1917-09-11,9720.0
1917-09-12,9990.0
1917-09-13,10300.0
1917-09-14,10500.0
1917-09-15,10800.0
1917-09-16,14300.0
1917-09-17,12300.0
1917-09-18,13100.0
1917-09-19,15200.0
1917-09-20,15600.0
1917-09-21,13900.0
1917-09-22,13100.0
1917-09-23,14700.0
1917-09-24,14300.0
1917-09-25,14300.0
1917-09-26,13500.0
1917-09-27,13500.0
1917-09-28,12700.0
1917-09-29,12700.0
1917-09-30,12300.0
1917-10-01,9570.0
1917-10-02,9570.0
1917-10-03,9570.0
1917-10-04,9570.0
1917-10-05,9570.0
1917-10-06,9570.0
1917-10-07,9570.0
1917-10-08,9570.0
1917-10-09,9570.0
1917-10-10,9570.0
1917-10-11,9570.0
1917-10-12,9570.0
1917-10-13,9570.0
1917-10-14,9570.0
1917-10-15,9570.0
1917-10-16,9570.0
1917-10-17,9570.0
1917-10-18,9570.0
1917-10-19,9570.0
1917-10-20,9570.0
1917-10-21,9570.0
1917-10-22,9570.0
1917-10-23,9570.0
1917-10-24,9570.0
1917-10-25,9570.0
1917-10-26,9570.0
1917-10-27,9570.0
1917-10-28,9570.0
1917-10-29,9570.0
1917-10-30,9570.0
1917-10-31,9570.0
1917-11-01,9100.0
1917-11-02,9100.0
1917-11-03,9100.0
1917-11-04,9100.0
1917-11-05,9100.0
1917-11-06,9100.0
1917-11-07,9100.0
1917-11-08,9100.0
1917-11-09,9100.0
1917-11-10,9100.0
1917-11-11,9100.0
1917-11-12,9100.0
1917-11-13,9100.0
1917-11-14,9100.0
1917-11-15,9100.0
1917-11-16,9100.0
1917-11-17,9100.0
1917-11-18,9100.0
1917-11-19,9100.0
1917-11-20,9100.0
1917-11-21,9100.0
1917-11-22,9100.0
1917-11-23,9100.0
1917-11-24,9100.0
1917-11-25,9100.0
1917-11-26,9100.0
1917-11-27,9100.0
1917-11-28,9100.0
1917-11-29,9100.0
1917-11-30,9100.0
1917-12-01,8830.0
1917-12-02,8830.0
1917-12-03,8830.0
1917-12-04,8830.0
1917-12-05,8830.0
1917-12-06,8830.0
1917-12-07,8830.0
1917-12-08,8830.0
1917-12-09,8830.0
1917-12-10,8830.0
1917-12-11,8830.0
1917-12-12,8830.0
1917-12-13,8830.0
1917-12-14,8830.0
1917-12-15,8830.0
1917-12-16,8830.0
1917-12-17,8830.0
1917-12-18,8830.0
1917-12-19,8830.0
1917-12-20,8830.0
1917-12-21,8830.0
1917-12-22,8830.0
1917-12-23,8830.0
1917-12-24,8830.0
1917-12-25,8830.0
1917-12-26,8830.0
1917-12-27,8830.0
1917-12-28,8830.0
1917-12-29,8830.0
1917-12-30,8830.0
1917-12-31,8830.0
1918-01-01,8590.0
1918-01-02,8590.0
1918-01-03,8590.0
1918-01-04,8590.0
1918-01-05,8590.0
1918-01-06,8590.0
1918-01-07,8590.0
1918-01-08,8590.0
1918-01-09,8590.0
1918-01-10,8590.0
1918-01-11,8590.0
1918-01-12,8590.0
1918-01-13,8590.0
1918-01-14,8590.0
1918-01-15,8590.0
1918-01-16,8590.0
1918-01-17,8590.0
1918-01-18,8590.0
1918-01-19,8590.0
1918-01-20,8590.0
1918-01-21,8590.0
1918-01-22,8590.0
1918-01-23,8590.0
1918-01-24,8590.0
1918-01-25,8590.0
1918-01-26,8590.0
1918-01-27,8590.0
1918-01-28,8590.0
1918-01-29,8590.0
1918-01-30,8590.0
1918-01-31,8590.0
1918-02-01,6800.0
1918-02-02,6400.0
1918-02-03,6400.0
1918-02-04,6400.0
1918-02-05,6800.0
1918-02-06,7200.0
1918-02-07,7200.0
1918-02-08,8800.0
1918-02-09,8400.0
1918-02-10,8000.0
1918-02-11,7600.0
1918-02-12,7200.0
1918-02-13,7200.0
1918-02-14,7200.0
1918-02-15,7200.0
1918-02-16,8000.0
1918-02-17,8800.0
1918-02-18,8800.0
1918-02-19,8800.0
1918-02-20,9200.0
1918-02-21,9600.0
1918-02-22,8800.0
1918-02-23,8400.0
1918-02-24,8400.0
1918-02-25,10500.0
1918-02-26,11800.0
1918-02-27,11400.0
1918-02-28,11000.0
1918-03-01,10500.0
1918-03-02,10000.0
1918-03-03,11000.0
1918-03-04,11800.0
1918-03-05,15000.0
1918-03-06,14100.0
1918-03-07,13200.0
1918-03-08,12300.0
1918-03-09,13200.0
1918-03-10,17000.0
1918-03-11,14600.0
1918-03-12,12800.0
1918-03-13,19000.0
1918-03-14,40100.0
1918-03-15,26200.0
1918-03-16,25600.0
1918-03-17,31000.0
1918-03-18,19000.0
1918-03-19,17000.0
1918-03-20,17000.0
1918-03-21,16500.0
1918-03-22,13600.0
1918-03-23,13200.0
1918-03-24,13600.0
1918-03-25,13600.0
1918-03-26,13600.0
1918-03-27,13600.0
1918-03-28,13600.0
1918-03-29,13600.0
1918-03-30,12300.0
1918-03-31,11400.0
1918-04-01,11000.0
1918-04-02,11000.0
1918-04-03,12300.0
1918-04-04,13600.0
1918-04-05,15500.0
1918-04-06,14100.0
1918-04-07,14600.0
1918-04-08,15000.0
1918-04-09,16000.0
1918-04-10,17500.0
1918-04-11,17000.0
1918-04-12,17000.0
1918-04-13,17000.0
1918-04-14,17000.0
1918-04-15,16000.0
1918-04-16,16000.0
1918-04-17,15000.0
1918-04-18,15000.0
1918-04-19,15500.0
1918-04-20,19000.0
1918-04-21,20600.0
1918-04-22,22800.0
1918-04-23,23300.0
1918-04-24,23300.0
1918-04-25,23300.0
1918-04-26,21600.0
1918-04-27,20000.0
1918-04-28,19000.0
1918-04-29,16000.0
1918-04-30,14600.0
1918-05-01,14100.0
1918-05-02,14600.0
1918-05-03,17500.0
1918-05-04,19000.0
1918-05-05,20000.0
1918-05-06,19500.0
1918-05-07,19500.0
1918-05-08,21600.0
1918-05-09,23300.0
1918-05-10,26800.0
1918-05-11,34200.0
1918-05-12,40100.0
1918-05-13,44200.0
1918-05-14,46900.0
1918-05-15,49600.0
1918-05-16,51600.0
1918-05-17,46900.0
1918-05-18,42800.0
1918-05-19,42100.0
1918-05-20,40800.0
1918-05-21,44800.0
1918-05-22,48900.0
1918-05-23,49600.0
1918-05-24,50300.0
1918-05-25,50300.0
1918-05-26,51600.0
1918-05-27,48200.0
1918-05-28,48900.0
1918-05-29,52300.0
1918-05-30,55100.0
1918-05-31,50300.0
1918-06-01,51600.0
1918-06-02,49600.0
1918-06-03,46200.0
1918-06-04,44800.0
1918-06-05,40800.0
1918-06-06,35500.0
1918-06-07,34200.0
1918-06-08,32200.0
1918-06-09,34200.0
1918-06-10,40800.0
1918-06-11,46200.0
1918-06-12,52300.0
1918-06-13,58500.0
1918-06-14,63400.0
1918-06-15,67500.0
1918-06-16,73800.0
1918-06-17,82200.0
1918-06-18,87800.0
1918-06-19,92000.0
1918-06-20,90600.0
1918-06-21,91700.0
1918-06-22,89000.0
1918-06-23,88000.0
1918-06-24,85000.0
1918-06-25,82500.0
1918-06-26,78500.0
1918-06-27,82000.0
1918-06-28,87000.0
1918-06-29,89000.0
1918-06-30,91500.0
1918-07-01,87500.0
1918-07-02,77500.0
1918-07-03,68500.0
1918-07-04,63500.0
1918-07-05,58500.0
1918-07-06,50000.0
1918-07-07,45700.0
1918-07-08,41500.0
1918-07-09,42300.0
1918-07-10,41800.0
1918-07-11,42500.0
1918-07-12,42300.0
1918-07-13,44900.0
1918-07-14,46900.0
1918-07-15,47500.0
1918-07-16,50500.0
1918-07-17,54500.0
1918-07-18,53300.0
1918-07-19,49300.0
1918-07-20,47300.0
1918-07-21,42800.0
1918-07-22,40000.0
1918-07-23,37000.0
1918-07-24,34200.0
1918-07-25,30000.0
1918-07-26,29000.0
1918-07-27,28500.0
1918-07-28,27200.0
1918-07-29,25500.0
1918-07-30,25200.0
1918-07-31,24000.0
1918-08-01,24000.0
1918-08-02,23500.0
1918-08-03,22300.0
1918-08-04,19200.0
1918-08-05,17600.0
1918-08-06,17400.0
1918-08-07,17200.0
1918-08-08,17600.0
1918-08-09,17600.0
1918-08-10,17200.0
1918-08-11,15800.0
1918-08-12,16300.0
1918-08-13,17000.0
1918-08-14,19000.0
1918-08-15,16500.0
1918-08-16,15500.0
1918-08-17,14800.0
1918-08-18,15200.0
1918-08-19,15200.0
1918-08-20,15200.0
1918-08-21,15200.0
1918-08-22,14500.0
1918-08-23,15300.0
1918-08-24,14000.0
1918-08-25,13100.0
1918-08-26,12200.0
1918-08-27,11300.0
1918-08-28,10400.0
1918-08-29,9500.0
1918-08-30,7850.0
1918-08-31,7000.0
1918-09-01,7000.0
1918-09-02,7000.0
1918-09-03,7000.0
1918-09-04,7400.0
1918-09-05,7200.0
1918-09-06,7600.0
1918-09-07,6800.0
1918-09-08,6000.0
1918-09-09,6410.0
1918-09-10,6820.0
1918-09-11,7230.0
1918-09-12,7640.0
1918-09-13,8050.0
1918-09-14,7800.0
1918-09-15,6900.0
1918-09-16,6300.0
1918-09-17,7200.0
1918-09-18,11000.0
1918-09-19,11500.0
1918-09-20,11500.0
1918-09-21,12200.0
1918-09-22,11800.0
1918-09-23,11500.0
1918-09-24,12500.0
1918-09-25,13500.0
1918-09-26,11500.0
1918-09-27,10000.0
1918-09-28,9500.0
1918-09-29,8400.0
1918-09-30,7800.0
1918-10-01,9350.0
1918-10-02,9850.0
1918-10-03,10100.0
1918-10-04,10600.0
1918-10-05,10100.0
1918-10-06,9350.0
1918-10-07,9100.0
1918-10-08,9350.0
1918-10-09,9350.0
1918-10-10,9350.0
1918-10-11,9350.0
1918-10-12,9100.0
1918-10-13,9100.0
1918-10-14,9350.0
1918-10-15,9350.0
1918-10-16,9350.0
1918-10-17,10100.0
1918-10-18,10600.0
1918-10-19,9600.0
1918-10-20,9600.0
1918-10-21,9850.0
1918-10-22,10400.0
1918-10-23,9850.0
1918-10-24,9600.0
1918-10-25,9850.0
1918-10-26,9350.0
1918-10-27,9600.0
1918-10-28,10400.0
1918-10-29,11500.0
1918-10-30,10600.0
1918-10-31,10100.0
1918-11-01,9850.0
1918-11-02,9600.0
1918-11-03,10100.0
1918-11-04,9850.0
1918-11-05,9850.0
1918-11-06,10100.0
1918-11-07,9850.0
1918-11-08,9850.0
1918-11-09,9600.0
1918-11-10,9600.0
1918-11-11,9850.0
1918-11-12,9600.0
1918-11-13,9850.0
1918-11-14,9850.0
1918-11-15,9600.0
1918-11-16,9600.0
1918-11-17,9350.0
1918-11-18,9100.0
1918-11-19,9100.0
1918-11-20,8850.0
1918-11-21,8600.0
1918-11-22,8600.0
1918-11-23,8600.0
1918-11-24,9100.0
1918-11-25,9600.0
1918-11-26,9350.0
1918-11-27,9100.0
1918-11-28,8850.0
1918-11-29,8600.0
1918-11-30,8600.0
1918-12-01,8600.0
1918-12-02,8400.0
1918-12-03,8200.0
1918-12-04,8200.0
1918-12-05,8000.0
1918-12-06,7800.0
1918-12-07,8000.0
1918-12-08,8000.0
1918-12-09,8000.0
1918-12-10,9100.0
1918-12-11,8200.0
1918-12-12,8000.0
1918-12-13,8850.0
1918-12-14,9100.0
1918-12-15,9100.0
1918-12-16,9100.0
1918-12-17,9350.0
1918-12-18,9350.0
1918-12-19,8850.0
1918-12-20,9100.0
1918-12-21,8850.0
1918-12-22,8600.0
1918-12-23,8200.0
1918-12-24,8000.0
1918-12-25,8000.0
1918-12-26,8200.0
1918-12-27,8600.0
1918-12-28,8400.0
1918-12-29,8100.0
1918-12-30,7800.0
1918-12-31,7500.0
1919-01-01,7200.0
1919-01-02,6900.0
1919-01-03,6600.0
1919-01-04,6400.0
1919-01-05,5950.0
1919-01-06,5800.0
1919-01-07,5800.0
1919-01-08,5350.0
1919-01-09,5050.0
1919-01-10,4900.0
1919-01-11,4750.0
1919-01-12,4600.0
1919-01-13,4450.0
1919-01-14,4450.0
1919-01-15,4200.0
1919-01-16,4100.0
1919-01-17,4900.0
1919-01-18,5650.0
1919-01-19,5950.0
1919-01-20,6250.0
1919-01-21,6100.0
1919-01-22,6100.0
1919-01-23,6100.0
1919-01-24,5950.0
1919-01-25,5950.0
1919-01-26,5950.0
1919-01-27,5950.0
1919-01-28,6100.0
1919-01-29,6100.0
1919-01-30,6100.0
1919-01-31,5950.0
1919-02-01,6250.0
1919-02-02,6800.0
1919-02-03,6800.0
1919-02-04,6800.0
1919-02-05,6800.0
1919-02-06,6800.0
1919-02-07,7000.0
1919-02-08,7200.0
1919-02-09,7000.0
1919-02-10,7400.0
1919-02-11,7400.0
1919-02-12,7600.0
1919-02-13,7600.0
1919-02-14,7600.0
1919-02-15,7600.0
1919-02-16,7400.0
1919-02-17,7400.0
1919-02-18,8400.0
1919-02-19,8200.0
1919-02-20,7600.0
1919-02-21,7600.0
1919-02-22,7600.0
1919-02-23,7400.0
1919-02-24,7200.0
1919-02-25,7000.0
1919-02-26,6800.0
1919-02-27,6800.0
1919-02-28,7000.0
1919-03-01,7200.0
1919-03-02,7600.0
1919-03-03,8000.0
1919-03-04,7800.0
1919-03-05,7800.0
1919-03-06,7600.0
1919-03-07,7600.0
1919-03-08,7800.0
1919-03-09,7800.0
1919-03-10,8400.0
1919-03-11,9100.0
1919-03-12,9600.0
1919-03-13,9350.0
1919-03-14,9100.0
1919-03-15,8850.0
1919-03-16,8600.0
1919-03-17,8600.0
1919-03-18,8850.0
1919-03-19,9100.0
1919-03-20,10400.0
1919-03-21,11500.0
1919-03-22,11500.0
1919-03-23,11800.0
1919-03-24,11500.0
1919-03-25,13000.0
1919-03-26,16000.0
1919-03-27,20200.0
1919-03-28,24000.0
1919-03-29,26200.0
1919-03-30,24000.0
1919-03-31,22600.0
1919-04-01,23000.0
1919-04-02,21800.0
1919-04-03,20600.0
1919-04-04,21500.0
1919-04-05,22400.0
1919-04-06,23400.0
1919-04-07,24300.0
1919-04-08,25200.0
1919-04-09,26200.0
1919-04-10,24800.0
1919-04-11,23500.0
1919-04-12,23000.0
1919-04-13,22200.0
1919-04-14,20600.0
1919-04-15,18600.0
1919-04-16,17800.0
1919-04-17,17100.0
1919-04-18,16000.0
1919-04-19,16400.0
1919-04-20,17800.0
1919-04-21,18600.0
1919-04-22,18200.0
1919-04-23,18200.0
1919-04-24,19400.0
1919-04-25,23000.0
1919-04-26,27600.0
1919-04-27,30300.0
1919-04-28,34300.0
1919-04-29,38300.0
1919-04-30,41000.0
1919-05-01,41600.0
1919-05-02,43200.0
1919-05-03,42600.0
1919-05-04,39400.0
1919-05-05,37300.0
1919-05-06,35800.0
1919-05-07,35800.0
1919-05-08,37800.0
1919-05-09,38300.0
1919-05-10,40400.0
1919-05-11,43800.0
1919-05-12,44300.0
1919-05-13,43800.0
1919-05-14,42100.0
1919-05-15,42100.0
1919-05-16,39900.0
1919-05-17,36800.0
1919-05-18,33300.0
1919-05-19,32300.0
1919-05-20,34300.0
1919-05-21,37300.0
1919-05-22,40400.0
1919-05-23,44300.0
1919-05-24,48800.0
1919-05-25,51600.0
1919-05-26,54400.0
1919-05-27,57100.0
1919-05-28,59900.0
1919-05-29,62700.0
1919-05-30,65500.0
1919-05-31,68300.0
1919-06-01,71000.0
1919-06-02,73800.0
1919-06-03,76600.0
1919-06-04,77300.0
1919-06-05,76600.0
1919-06-06,69600.0
1919-06-07,57200.0
1919-06-08,50600.0
1919-06-09,47000.0
1919-06-10,43200.0
1919-06-11,41000.0
1919-06-12,39000.0
1919-06-13,37000.0
1919-06-14,35100.0
1919-06-15,33100.0
1919-06-16,31100.0
1919-06-17,33700.0
1919-06-18,36300.0
1919-06-19,37800.0
1919-06-20,38300.0
1919-06-21,39400.0
1919-06-22,41000.0
1919-06-23,38800.0
1919-06-24,37800.0
1919-06-25,35800.0
1919-06-26,34300.0
1919-06-27,32300.0
1919-06-28,29800.0
1919-06-29,28400.0
1919-06-30,26600.0
1919-07-01,25800.0
1919-07-02,24000.0
1919-07-03,22600.0
1919-07-04,22600.0
1919-07-05,21400.0
1919-07-06,20200.0
1919-07-07,19400.0
1919-07-08,19400.0
1919-07-09,21000.0
1919-07-10,20600.0
1919-07-11,20200.0
1919-07-12,20200.0
1919-07-13,19400.0
1919-07-14,21800.0
1919-07-15,25300.0
1919-07-16,21800.0
1919-07-17,21400.0
1919-07-18,26200.0
1919-07-19,29400.0
1919-07-20,38800.0
1919-07-21,40400.0
1919-07-22,38300.0
1919-07-23,35000.0
1919-07-24,31600.0
1919-07-25,28200.0
1919-07-26,24900.0
1919-07-27,21600.0
1919-07-28,18200.0
1919-07-29,21800.0
1919-07-30,17800.0
1919-07-31,16000.0
1919-08-01,15700.0
1919-08-02,14600.0
1919-08-03,17800.0
1919-08-04,18200.0
1919-08-05,18200.0
1919-08-06,17800.0
1919-08-07,29400.0
1919-08-08,37300.0
1919-08-09,34800.0
1919-08-10,32300.0
1919-08-11,29800.0
1919-08-12,27300.0
1919-08-13,24900.0
1919-08-14,22400.0
1919-08-15,19900.0
1919-08-16,17400.0
1919-08-17,16400.0
1919-08-18,15400.0
1919-08-19,14000.0
1919-08-20,12700.0
1919-08-21,11800.0
1919-08-22,10400.0
1919-08-23,9600.0
1919-08-24,9100.0
1919-08-25,8400.0
1919-08-26,7600.0
1919-08-27,7000.0
1919-08-28,6400.0
1919-08-29,5800.0
1919-08-30,5650.0
1919-08-31,5350.0
1919-09-01,4900.0
1919-09-02,4750.0
1919-09-03,4450.0
1919-09-04,4900.0
1919-09-05,4900.0
1919-09-06,5500.0
1919-09-07,5050.0
1919-09-08,5050.0
1919-09-09,4900.0
1919-09-10,5050.0
1919-09-11,5500.0
1919-09-12,6400.0
1919-09-13,6800.0
1919-09-14,7400.0
1919-09-15,8600.0
1919-09-16,7800.0
1919-09-17,7400.0
1919-09-18,8000.0
1919-09-19,8000.0
1919-09-20,8600.0
1919-09-21,6800.0
1919-09-22,8000.0
1919-09-23,7200.0
1919-09-24,7200.0
1919-09-25,7600.0
1919-09-26,8400.0
1919-09-27,8600.0
1919-09-28,8000.0
1919-09-29,7400.0
1919-09-30,7400.0
1919-10-01,8000.0
1919-10-02,8600.0
1919-10-03,8850.0
1919-10-04,8850.0
1919-10-05,9100.0
1919-10-06,9600.0
1919-10-07,9850.0
1919-10-08,9850.0
1919-10-09,9850.0
1919-10-10,9600.0
1919-10-11,9600.0
1919-10-12,10100.0
1919-10-13,10400.0
1919-10-14,10600.0
1919-10-15,9850.0
1919-10-16,10400.0
1919-10-17,9600.0
1919-10-18,8850.0
1919-10-19,8600.0
1919-10-20,8850.0
1919-10-21,8200.0
1919-10-22,7800.0
1919-10-23,8000.0
1919-10-24,8400.0
1919-10-25,9100.0
1919-10-26,9850.0
1919-10-27,10100.0
1919-10-28,11200.0
1919-10-29,9850.0
1919-10-30,9850.0
1919-10-31,11200.0
1919-11-01,11800.0
1919-11-02,10600.0
1919-11-03,10100.0
1919-11-04,9350.0
1919-11-05,8850.0
1919-11-06,8400.0
1919-11-07,8000.0
1919-11-08,7800.0
1919-11-09,7600.0
1919-11-10,7200.0
1919-11-11,7600.0
1919-11-12,7800.0
1919-11-13,7800.0
1919-11-14,8200.0
1919-11-15,8400.0
1919-11-16,8600.0
1919-11-17,9100.0
1919-11-18,9350.0
1919-11-19,9100.0
1919-11-20,9600.0
1919-11-21,10100.0
1919-11-22,10100.0
1919-11-23,10400.0
1919-11-24,10600.0
1919-11-25,10600.0
1919-11-26,10600.0
1919-11-27,11200.0
1919-11-28,10600.0
1919-11-29,11500.0
1919-11-30,10900.0
1919-12-01,25800.0
1919-12-02,18600.0
1919-12-03,15700.0
1919-12-04,14300.0
1919-12-05,13000.0
1919-12-06,11200.0
1919-12-07,10100.0
1919-12-08,9600.0
1919-12-09,18600.0
1919-12-10,20600.0
1919-12-11,14300.0
1919-12-12,11800.0
1919-12-13,11800.0
1919-12-14,11200.0
1919-12-15,10400.0
1919-12-16,9100.0
1919-12-17,8000.0
1919-12-18,7000.0
1919-12-19,6250.0
1919-12-20,6100.0
1919-12-21,6250.0
1919-12-22,6800.0
1919-12-23,7000.0
1919-12-24,6400.0
1919-12-25,6100.0
1919-12-26,5800.0
1919-12-27,5500.0
1919-12-28,6100.0
1919-12-29,6600.0
1919-12-30,7200.0
1919-12-31,7200.0
1920-01-01,7200.0
1920-01-02,7200.0
1920-01-03,7200.0
1920-01-04,7400.0
1920-01-05,7400.0
1920-01-06,7400.0
1920-01-07,7600.0
1920-01-08,8000.0
1920-01-09,7800.0
1920-01-10,9350.0
1920-01-11,10900.0
1920-01-12,11200.0
1920-01-13,10400.0
1920-01-14,9100.0
1920-01-15,8000.0
1920-01-16,7400.0
1920-01-17,7000.0
1920-01-18,6400.0
1920-01-19,6100.0
1920-01-20,5650.0
1920-01-21,5650.0
1920-01-22,5500.0
1920-01-23,5650.0
1920-01-24,5650.0
1920-01-25,5650.0
1920-01-26,5950.0
1920-01-27,8850.0
1920-01-28,10100.0
1920-01-29,11800.0
1920-01-30,12400.0
1920-01-31,11800.0
1920-02-01,10900.0
1920-02-02,10600.0
1920-02-03,10400.0
1920-02-04,9600.0
1920-02-05,10100.0
1920-02-06,10600.0
1920-02-07,10600.0
1920-02-08,11500.0
1920-02-09,12700.0
1920-02-10,12400.0
1920-02-11,12400.0
1920-02-12,14000.0
1920-02-13,22200.0
1920-02-14,17100.0
1920-02-15,15000.0
1920-02-16,13000.0
1920-02-17,12700.0
1920-02-18,13000.0
1920-02-19,13300.0
1920-02-20,13300.0
1920-02-21,14000.0
1920-02-22,14600.0
1920-02-23,15400.0
1920-02-24,19800.0
1920-02-25,51200.0
1920-02-26,58400.0
1920-02-27,41600.0
1920-02-28,31800.0
1920-02-29,28400.0
1920-03-01,22200.0
1920-03-02,19000.0
1920-03-03,16400.0
1920-03-04,17800.0
1920-03-05,16400.0
1920-03-06,15400.0
1920-03-07,14300.0
1920-03-08,15400.0
1920-03-09,16800.0
1920-03-10,17100.0
1920-03-11,16000.0
1920-03-12,13600.0
1920-03-13,12700.0
1920-03-14,12100.0
1920-03-15,11500.0
1920-03-16,10900.0
1920-03-17,10600.0
1920-03-18,10400.0
1920-03-19,10400.0
1920-03-20,10600.0
1920-03-21,11500.0
1920-03-22,13000.0
1920-03-23,14000.0
1920-03-24,14600.0
1920-03-25,14600.0
1920-03-26,15400.0
1920-03-27,15700.0
1920-03-28,17100.0
1920-03-29,19800.0
1920-03-30,19000.0
1920-03-31,19000.0
1920-04-01,17400.0
1920-04-02,16800.0
1920-04-03,16400.0
1920-04-04,15400.0
1920-04-05,15400.0
1920-04-06,14300.0
1920-04-07,13600.0
1920-04-08,13300.0
1920-04-09,13300.0
1920-04-10,12700.0
1920-04-11,12400.0
1920-04-12,12400.0
1920-04-13,13300.0
1920-04-14,15000.0
1920-04-15,17400.0
1920-04-16,21800.0
1920-04-17,23000.0
1920-04-18,26200.0
1920-04-19,29400.0
1920-04-20,33000.0
1920-04-21,33000.0
1920-04-22,33000.0
1920-04-23,33000.0
1920-04-24,33000.0
1920-04-25,33000.0
1920-04-26,33000.0
1920-04-27,33000.0
1920-04-28,33000.0
1920-04-29,33000.0
1920-04-30,33000.0
1920-05-01,33000.0
1920-05-02,33000.0
1920-05-03,33000.0
1920-05-04,33000.0
1920-05-05,33000.0
1920-05-06,33000.0
1920-05-07,33000.0
1920-05-08,33000.0
1920-05-09,50000.0
1920-05-10,54500.0
1920-05-11,60000.0
1920-05-12,63200.0
1920-05-13,67600.0
1920-05-14,70200.0
1920-05-15,75000.0
1920-05-16,73600.0
1920-05-17,67600.0
1920-05-18,67000.0
1920-05-19,71000.0
1920-05-20,75000.0
1920-05-21,80000.0
1920-05-22,83800.0
1920-05-23,86000.0
1920-05-24,97300.0
1920-05-25,108000.0
1920-05-26,116000.0
1920-05-27,136000.0
1920-05-28,147000.0
1920-05-29,152000.0
1920-05-30,150000.0
1920-05-31,151000.0
1920-06-01,155000.0
1920-06-02,152000.0
1920-06-03,147000.0
1920-06-04,143000.0
1920-06-05,139000.0
1920-06-06,138000.0
1920-06-07,139000.0
1920-06-08,137000.0
1920-06-09,130000.0
1920-06-10,117000.0
1920-06-11,105000.0
1920-06-12,96000.0
1920-06-13,91000.0
1920-06-14,89500.0
1920-06-15,90100.0
1920-06-16,91500.0
1920-06-17,86600.0
1920-06-18,85300.0
1920-06-19,86000.0
1920-06-20,79200.0
1920-06-21,72300.0
1920-06-22,65500.0
1920-06-23,58700.0
1920-06-24,51800.0
1920-06-25,45000.0
1920-06-26,45600.0
1920-06-27,46200.0
1920-06-28,46900.0
1920-06-29,47500.0
1920-06-30,48700.0
1920-07-01,49900.0
1920-07-02,51100.0
1920-07-03,52300.0
1920-07-04,53600.0
1920-07-05,54800.0
1920-07-06,56000.0
1920-07-07,55600.0
1920-07-08,55200.0
1920-07-09,54800.0
1920-07-10,52300.0
1920-07-11,49800.0
1920-07-12,47300.0
1920-07-13,44800.0
1920-07-14,43200.0
1920-07-15,40400.0
1920-07-16,38800.0
1920-07-17,36300.0
1920-07-18,34800.0
1920-07-19,32300.0
1920-07-20,30300.0
1920-07-21,29400.0
1920-07-22,28900.0
1920-07-23,28000.0
1920-07-24,28000.0
1920-07-25,28000.0
1920-07-26,28400.0
1920-07-27,28000.0
1920-07-28,28400.0
1920-07-29,28000.0
1920-07-30,28000.0
1920-07-31,28000.0
1920-08-01,26600.0
1920-08-02,27100.0
1920-08-03,26200.0
1920-08-04,25800.0
1920-08-05,23000.0
1920-08-06,25800.0
1920-08-07,27100.0
1920-08-08,27100.0
1920-08-09,27100.0